Showing default

COSMOS 1700, 16199

Orbit data source: Space-Track

COSMOS 1700, 16199 is a payload satellite owned by GUKOS (CIS) in GEO that was launched on Fri, 25 Oct 1985 UTC via a PROTON-K/DM-2 launch vehicle from the Tyuratam Missile And Space Complex (TTMTR). Payload-class satellites include a variety of spacecraft equipped with specific instruments for various scientific and technological missions. These include communications satellites like Starlink; space stations such as the ISS; scientific satellites like the Hubble; Earth observation satellites from companies like Planet Labs, Umbra, and HawkEye 360; GPS; miniature CubeSats for education and research; and military/defense satellites.

Not visible in the next 10 days
Identifier
16199, 1985-102A
Orbit
GEO
Country
Flag of CISCIS
Related business
Manufacturer
NPO PM
Mission
Non-operational spacecraft
Bus & Motor
KAUR-4 AL'TAIR, Unknown motor
Mass
2,400 kg wet, ~2,200 kg dry
Launch date (UTC)
1985-10-25 (41 years ago)
Launch vehicle
PROTON-K/DM-2
Launch site
Tyuratam Missile And Space Complex (TTMTR)
Object type
Payload
Rocket body
Debris
Shape & HBR
Unknown
Radar Cross Section
Large (>1 m²)

Expand to show TLE details & history
Last TLE update: 2 days ago

TLE from 2 days ago
0 COSMOS 1700
1 16199U 85102A   26171.40849205 -.00000198  00000-0  00000+0 0  9999
2 16199   9.7071 318.8555 0004433 231.6129 308.6017  1.00312775151700
Epoch: 2026-06-20T09:48Z
TLE epoch observation values (Epoch: 2026-06-20T09:48:13.713Z)
Latitude
-0.02462°
Longitude
83.34521°
Altitude
35,763.046 km
Speed
3.076 km/s
True Right ascension
09h 16m 06s
True Declination
0° 01' 29"
Sunlit
Object was in daylight at epoch
Visualization orbit readout
Latitude
Unknown
Longitude
Unknown
Altitude
Unknown
Speed
Unknown
Apparent Right ascension
Unknown
Apparent Declination
Unknown
Sunlit
N/A
Visualization observer readout
Local Sidereal Time
23:20:44
Azimuth
Unknown
Elevation
Unknown
Doppler factor
Unknown
Orbital elements
Apogee altitude
35,794.821 km
Perigee altitude
35,757.447 km
Semi-major axis
42,154.271 km
Eccentricity
0.00044
Inclination
9.7071°
RAAN
318.8555°
Arg. of periapsis
231.6129°
True anomaly
308.56199°
Mean anomaly
308.6017°
Eccentric anomaly
308.58184°
Mean motion
0.25077 °/min
Orbital period
1,435.56 mins
BSTAR
0
Loading maneuver chart data...
Computing Atmospheric mass density...
Loading historical data...
Loading historical data...
Loading historical data...
Loading historical data...
Loading historical data...
Loading historical data...
Loading historical data...

Documentation

Showing up to 5 results
|